EW9435 Weather Reports


Display with metric or nautical units.
time (UTC)temp
F
wind
direction
speed
MPH
gust
MPH
rain 1hr
in
rain 24hr
in
rain mn
in
humidity
%
barometer
mb
20190124072524 24 0.0 0.0 0.00 0.00 0.00 71 1005.6
20190124071520 24 90 0.0 1.0 0.00 0.00 0.00 72 1005.5
20190124070517 24 0.0 0.0 0.00 0.00 0.00 72 1005.3
20190124065614 24 45 0.0 3.0 0.00 0.00 0.00 72 1005.1
20190124064610 24 45 0.0 1.0 0.00 0.00 0.00 72 1005.0
20190124063608 24 0.0 0.0 0.00 0.00 0.00 72 1005.0
20190124062603 24 0.0 0.0 0.00 0.00 0.00 72 1004.9
20190124061557 24 337 0.0 2.0 0.00 0.00 0.00 72 1004.7
20190124060553 24 0.0 0.0 0.00 0.00 0.00 71 1004.7
20190124055549 24 45 0.0 2.0 0.00 0.00 0.00 71 1004.5
20190124054546 24 0 0.0 2.0 0.00 0.00 0.00 71 1004.4
20190124053543 24 0.0 1.0 0.00 0.00 0.00 71 1004.2
20190124052540 24 0.0 0.0 0.00 0.00 0.00 71 1004.0
20190124051535 24 0 1.0 3.0 0.00 0.00 0.00 71 1004.0
20190124050531 24 0.0 0.0 0.00 0.00 0.00 71 1003.8
20190124045528 24 59 0.0 2.0 0.00 0.00 0.00 71 1003.7
20190124044524 24 101 0.0 2.0 0.00 0.00 0.00 71 1003.7
20190124043521 24 90 0.0 1.0 0.00 0.00 0.00 71 1003.7
20190124042517 24 7 0.0 3.0 0.00 0.00 0.00 71 1003.5
20190124041614 24 45 0.0 2.0 0.00 0.00 0.00 71 1003.4
20190124040610 24 22 0.0 2.0 0.00 0.00 0.00 70 1003.4
20190124035607 24 0 0.0 3.0 0.00 0.00 0.00 69 1003.3
20190124034604 24 79 1.0 3.0 0.00 0.00 0.00 69 1003.2
20190124033600 24 45 1.0 3.0 0.00 0.00 0.00 69 1003.2
20190124032557 24 67 0.0 2.0 0.00 0.00 0.00 69 1003.1
20190124031553 24 75 2.0 6.0 0.00 0.00 0.00 69 1003.0
20190124030550 24 90 1.0 3.0 0.00 0.00 0.00 69 1003.0
20190124025547 24 48 2.0 6.0 0.00 0.00 0.00 69 1002.8
20190124024543 24 107 1.0 5.0 0.00 0.00 0.00 69 1002.8
20190124023540 24 17 0.0 1.0 0.00 0.00 0.00 69 1002.8
20190124022537 24 53 1.0 3.0 0.00 0.00 0.00 69 1002.7
20190124021533 24 75 1.0 3.0 0.00 0.00 0.00 69 1002.6
20190124020530 24 39 0.0 3.0 0.00 0.00 0.00 69 1002.5
20190124015528 24 52 1.0 3.0 0.00 0.00 0.00 69 1002.5
20190124014523 24 90 0.0 3.0 0.00 0.00 0.00 69 1002.5
20190124013519 24 90 0.0 3.0 0.00 0.00 0.00 69 1002.4
20190124012516 24 60 0.0 3.0 0.00 0.00 0.00 69 1002.2
20190124011613 24 48 1.0 4.0 0.00 0.00 0.00 69 1002.1
20190124010610 24 45 3.0 3.0 0.00 0.00 0.00 69 1002.0
20190124005607 24 61 2.0 4.0 0.00 0.00 0.00 68 1001.9
20190124004603 24 67 2.0 5.0 0.00 0.00 0.00 68 1001.9
20190124003600 24 62 2.0 5.0 0.00 0.00 0.00 68 1001.8
20190124002556 24 73 1.0 3.0 0.00 0.00 0.00 67 1001.7
20190124001553 24 28 1.0 3.0 0.00 0.00 0.00 66 1001.7
20190124000550 24 67 0.0 2.0 0.00 0.00 0.00 66 1001.6
20190123235546 24 0.0 1.0 0.00 0.00 0.00 64 1001.5
20190123234543 24 45 1.0 4.0 0.00 0.00 0.00 64 1001.5
20190123233539 25 341 0.0 3.0 0.00 0.00 0.00 64 1001.4
20190123232536 25 0.0 0.0 0.00 0.00 0.00 64 1001.3
20190123231533 25 34 1.0 3.0 0.00 0.00 0.00 65 1001.2
20190123230558 25 90 2.0 3.0 0.00 0.00 0.00 65 1001.1
20190123225555 25 84 3.0 6.0 0.00 0.00 0.00 65 1000.9
20190123224552 25 141 1.0 4.0 0.00 0.00 0.00 65 1000.8
20190123223548 25 86 1.0 3.0 0.00 0.00 0.00 64 1000.7
20190123222545 25 93 2.0 5.0 0.00 0.00 0.00 62 1000.5
20190123221542 25 0.0 1.0 0.00 0.00 0.00 62 1000.5
20190123220538 25 0.0 0.0 0.00 0.00 0.00 61 1000.4
20190123215535 25 135 0.0 1.0 0.00 0.00 0.00 61 1000.3
20190123214600 25 67 0.0 1.0 0.00 0.00 0.00 61 1000.3
20190123213557 26 120 0.0 2.0 0.00 0.00 0.00 62 1000.2
20190123212554 26 78 1.0 3.0 0.00 0.00 0.00 62 1000.2
20190123211551 26 74 2.0 5.0 0.00 0.00 0.00 62 1000.1
20190123210547 26 112 6.0 8.0 0.00 0.00 0.00 62 1000.0
20190123205543 26 90 3.0 6.0 0.00 0.00 0.00 62 999.9
20190123204541 26 70 1.0 3.0 0.00 0.00 0.00 62 999.8
20190123203537 26 95 4.0 9.0 0.00 0.00 0.00 62 999.8
20190123202533 26 119 3.0 6.0 0.00 0.00 0.00 62 999.6
20190123201530 26 111 6.0 9.0 0.00 0.00 0.00 62 999.5
20190123200526 26 96 3.0 7.0 0.00 0.00 0.00 62 999.5
20190123195527 26 90 7.0 11.0 0.00 0.00 0.00 61 999.4
20190123194523 26 65 1.0 5.0 0.00 0.00 0.00 61 999.4
20190123193516 25 95 3.0 6.0 0.00 0.00 0.00 61 999.3
20190123192617 25 90 2.0 5.0 0.00 0.00 0.00 60 999.3
20190123191613 25 82 3.0 6.0 0.00 0.00 0.00 60 999.1
20190123190606 25 90 5.0 6.0 0.00 0.00 0.00 60 999.0
20190123185603 25 90 3.0 6.0 0.00 0.00 0.00 60 999.0
20190123184558 25 66 3.0 8.0 0.00 0.00 0.00 60 998.9
20190123183555 25 104 5.0 9.0 0.00 0.00 0.00 60 998.8
20190123182551 25 96 6.0 11.0 0.00 0.00 0.00 60 998.8
20190123181548 26 66 7.0 10.0 0.00 0.00 0.00 60 998.6
20190123180544 26 79 7.0 10.0 0.00 0.00 0.00 59 998.6
20190123175542 26 99 4.0 8.0 0.00 0.00 0.00 59 998.5
20190123174538 26 85 4.0 12.0 0.00 0.00 0.00 59 998.4
20190123173538 26 90 2.0 5.0 0.00 0.00 0.00 58 998.4
20190123172530 26 72 3.0 6.0 0.00 0.00 0.00 56 998.3
20190123171527 26 87 2.0 5.0 0.00 0.00 0.00 56 998.4
20190123170524 26 90 3.0 4.0 0.00 0.00 0.00 55 998.4
20190123165521 26 69 2.0 6.0 0.00 0.00 0.00 54 998.2
20190123164517 27 50 3.0 7.0 0.00 0.00 0.00 53 998.1
20190123163614 27 55 1.0 5.0 0.00 0.00 0.00 52 997.9
20190123162610 27 62 2.0 5.0 0.00 0.00 0.00 51 997.9
20190123161607 27 79 4.0 9.0 0.00 0.00 0.00 49 997.7
20190123160604 27 90 3.0 6.0 0.00 0.00 0.00 48 997.8
20190123155601 27 73 4.0 7.0 0.00 0.00 0.00 48 997.7
20190123154557 28 90 3.0 9.0 0.00 0.00 0.00 48 997.6
20190123153554 28 78 4.0 6.0 0.00 0.00 0.00 48 997.6
20190123152551 28 83 3.0 6.0 0.00 0.00 0.00 49 997.5
20190123151547 28 90 3.0 7.0 0.00 0.00 0.00 51 997.4
20190123150544 28 90 4.0 6.0 0.00 0.00 0.00 51 997.3
20190123145540 28 95 6.0 9.0 0.00 0.00 0.00 51 997.3
20190123144537 28 77 6.0 9.0 0.00 0.00 0.00 51 997.2
20190123143534 28 90 5.0 9.0 0.00 0.00 0.00 51 997.3
20190123142531 28 95 5.0 9.0 0.00 0.00 0.00 51 997.3
20190123141527 28 90 5.0 10.0 0.00 0.00 0.00 52 997.2
20190123140524 28 90 8.0 12.0 0.00 0.00 0.00 52 997.1
20190123135521 28 106 4.0 8.0 0.00 0.00 0.00 52 997.0
20190123134517 28 112 4.0 9.0 0.00 0.00 0.00 52 997.1
20190123133614 28 81 3.0 8.0 0.00 0.00 0.00 52 997.1
20190123132611 28 95 5.0 11.0 0.00 0.00 0.00 48 997.0
20190123131607 28 90 6.0 11.0 0.00 0.00 0.00 48 997.0
20190123130604 28 77 6.0 9.0 0.00 0.00 0.00 48 997.1
20190123125601 28 90 6.0 11.0 0.00 0.00 0.00 48 997.1
20190123124557 27 90 6.0 10.0 0.00 0.00 0.00 48 997.2
20190123123553 27 90 7.0 13.0 0.00 0.00 0.00 47 997.3
20190123122550 28 90 4.0 9.0 0.00 0.00 0.00 46 997.4
20190123121547 28 82 3.0 6.0 0.00 0.00 0.00 48 997.4
20190123120543 28 107 5.0 9.0 0.00 0.00 0.00 49 997.5
20190123115540 28 135 4.0 7.0 0.00 0.00 0.00 44 997.5
20190123114536 28 99 2.0 6.0 0.00 0.00 0.00 48 997.6
20190123113532 28 76 4.0 10.0 0.00 0.00 0.00 51 997.7
20190123112530 27 94 5.0 11.0 0.00 0.00 0.00 48 997.7
20190123111526 26 98 5.0 9.0 0.00 0.00 0.00 48 997.8
20190123110522 27 90 5.0 9.0 0.00 0.00 0.00 48 997.9
20190123105519 27 100 5.0 10.0 0.00 0.00 0.00 49 998.1
20190123104516 26 90 5.0 10.0 0.00 0.00 0.00 51 998.3
20190123103613 25 107 5.0 9.0 0.00 0.00 0.00 53 998.5
20190123102610 25 97 5.0 10.0 0.00 0.00 0.00 54 998.6
20190123101606 24 165 4.0 7.0 0.00 0.00 0.00 56 998.7
20190123100603 25 109 5.0 10.0 0.00 0.00 0.00 59 998.8
20190123095600 24 148 3.0 8.0 0.00 0.00 0.00 60 998.9
20190123094557 24 93 4.0 10.0 0.00 0.00 0.00 64 998.9
20190123093553 24 136 3.0 9.0 0.00 0.00 0.00 68 999.0
20190123092549 24 90 3.0 7.0 0.00 0.00 0.00 70 998.9
20190123091546 23 88 3.0 6.0 0.00 0.00 0.00 71 999.0
20190123090543 23 135 6.0 7.0 0.00 0.00 0.00 72 999.0
20190123085539 23 95 4.0 6.0 0.00 0.00 0.00 72 998.9
20190123084536 22 97 4.0 8.0 0.00 0.00 0.00 73 998.8
20190123083533 22 90 4.0 6.0 0.00 0.00 0.00 74 999.0
20190123082530 22 90 4.0 9.0 0.00 0.00 0.00 75 999.0
20190123081529 22 73 2.0 4.0 0.00 0.00 0.00 75 999.0
20190123080552 21 90 3.0 6.0 0.00 0.00 0.00 75 999.1
20190123075549 21 90 4.0 6.0 0.00 0.00 0.00 75 999.1
20190123074546 21 72 3.0 6.0 0.00 0.00 0.00 76 999.2